Location: Ferchesar
(52.6477°N, 12.4298°E)
Time: 21:42:49
(UTC+01:00)

Tiros 1 - Visible Passes

Search period start: 03 December 2021 00:00
Search period end: 13 December 2021 00:00
Orbit: 630 x 664 km, 48.4° (Epoch: 03 December)

Date Brightness Start Highest point End Pass type
(mag) Time Alt. Az. Time Alt. Az. Time Alt. Az.
03 Dec 9.5 19:25:13 10° SSW 19:26:11 15° SSW 19:26:11 15° SSW visible
04 Dec 8.9 18:10:29 10° S 18:13:26 17° SE 18:13:30 17° SE visible
04 Dec 9.7 19:50:27 10° SW 19:51:10 14° SW 19:51:10 14° SW visible
05 Dec 8.5 18:35:00 10° SSW 18:38:25 26° SSE 18:38:25 26° SSE visible
05 Dec 10.1 20:15:59 10° WSW 20:16:05 11° WSW 20:16:05 11° WSW visible
06 Dec 9.1 17:20:23 10° S 17:23:09 16° SE 17:25:39 11° ESE visible
06 Dec 8.4 19:00:10 10° SW 19:03:18 32° SSW 19:03:18 32° SSW visible
07 Dec 8.5 17:44:46 10° SSW 17:48:35 26° SSE 17:50:29 20° ESE visible
07 Dec 8.8 19:25:41 10° WSW 19:28:08 29° SW 19:28:08 29° SW visible
08 Dec 8.0 18:09:53 10° SW 18:14:09 37° SSE 18:15:17 32° SE visible
08 Dec 9.4 19:51:23 10° WSW 19:52:57 20° WSW 19:52:57 20° WSW visible
09 Dec 8.7 16:54:33 10° SSW 16:58:17 24° SSE 17:02:02 10° E visible
09 Dec 7.6 18:35:23 10° WSW 18:39:50 47° S 18:40:05 46° SSE visible
09 Dec 10.0 20:17:10 10° W 20:17:44 13° W 20:17:44 13° W visible
10 Dec 8.2 17:19:37 10° SW 17:23:50 35° SSE 17:27:12 15° E visible
10 Dec 7.9 19:01:04 10° WSW 19:04:51 46° SSW 19:04:51 46° SSW visible
11 Dec 7.8 17:45:05 10° WSW 17:49:30 46° S 17:51:59 24° ESE visible
11 Dec 8.7 19:26:50 10° W 19:29:38 32° WSW 19:29:38 32° WSW visible
12 Dec 8.4 16:29:21 10° SW 16:33:31 34° SSE 16:37:44 10° E visible
12 Dec 7.6 18:10:45 10° WSW 18:15:15 51° S 18:16:47 35° SE visible
12 Dec 9.4 19:52:42 10° W 19:54:26 21° WSW 19:54:26 21° WSW visible
